Regional Weather Roundup
Issued by NWS Goodland, KS

Home | Current Version | Previous Version | Text Only | Print | Product List | Glossary Off
Versions: 1 2 3 4 5 6 7 8 9 10 11 12 13 14 15 16 17 18 19 20 21 22 23 24 25 26 27 28 29 30 31 32 33 34 35 36 37 38 39 40 41 42 43 44 45 46 47 48 49 50

000
ASUS43 KGLD 040459
RWRGLD

GOODLAND FORECAST AREA HOURLY WEATHER ROUNDUP
NATIONAL WEATHER SERVICE GOODLAND KS
1000 PM MST SAT DEC 03 2016

...OFFICIAL OBSERVATIONS...

CITY           SKY/WX    TMP DP  RH WIND       PRES   REMARKS
GOODLAND KS    CLEAR     26  21  81 W8        30.03R
HILL CITY KS   CLOUDY    32  32 100 W8        30.07R FOG
IMPERIAL NEB   PTCLDY    27  14  58 W12       30.02R WCI  17
MCCOOK NEB     PTCLDY    31  30  96 SW8       30.02F FOG
AKRON CO       CLEAR     28  12  51 NW13      30.03R WCI  17
BURLINGTON CO  CLEAR     24  13  62 NW7       30.04S
LIMON CO       CLEAR     19  15  84 VRB3      30.06R
$$

...UNOFFICIAL OBSERVATIONS...

CITY           SKY/WX    TMP DP  RH WIND       PRES   REMARKS
COLBY KS       MOCLDY    27  27 100 W9        30.03S
LENORA KS        N/A     32  32 100 MISG        N/A
NORTON KS      CLOUDY    34  30  86 S7        30.03F FOG
SHARON SPRINGS   N/A     27  25  90 W7          N/A
TRENTON NEB      N/A     29  32 100 CALM        N/A
KIT CARSON CO    N/A     21  15  76 CALM        N/A
YUMA CO        FAIR      21  12  68 W7        30.04R
$$



USA.gov is the U.S. government's official web portal to all federal, state and local government web resources and services.